Timeline UpdatesTrip UpdatesNews PostsPvt PostsTravel TipsAdmin PostsConv PostsFollowed PostsChat RequestsBlog PostsPNR Posts

Disclaimer
Search
 
 
Wed Jul 23, 2014 09:13:21 ISTHomeTrainsΣChainsAtlasPNRForumGalleryNewsFAQTripsMembersLoginFeedback
No Recent News for this Train
Other Trains in the News **new
Latest...
Will be diverted via Malkhedi-Agasod chord line avoiding Bina station from 25th march 2014
Thu Mar 27, 2014 (03:33PM)
⇐ Return Journey: Train# 18477

18478/Kalinga Utkal Express

Mar 27 2014 (3:32PM)
Change Departure Station:
Change Arrival Station:
Post a Train Travel TipPost a Train Travel Tip **new
Post a Comment/Question/Picture/VideoPost a Comment/Question/Picture/Video
Pantry/Catering
✓ Pantry Car Avbl
✓ Catering Avbl
RSA - Rake Sharing
Rake/Coach Composition
Coach Composition:ENG-SLR-GS-S1-S2-S3-S4-S5-S6-S7-S8-S9-PC-S10-S11-S12-B1-B2-A1-GS-GS-SLR. By DJ 132 blog Entry# 701076
Loco
HW-NZM: LDH WDM-3A NZM-PURI: TKD WAP-7
News    PNR    Forum    Time-Table    Availability    Fare Chart    Map    Arr/Dep History    Trips    Gallery    ΣChains    X/O    Timeline    
Travel Time: 37h 58m    57 halts    Distance: 1850 km    Avg Speed: 48 km/hr
Type: Mail/Express
Zone: ECoR/East Coast
Departs @ 17:02
Platform# ???
SMTWTFS
Morena/MRA 
Arrives @ 07:00 +2 nights
Platform# 1
SMTWTFS
Puri/PURI 

57 halts. 255 intermediate Stations between Morena and Puri

Show ALL intermediate Stations  Show Old Time-Table

#CodeStation NameX/OArrivesAvgDepartsAvgHaltPFDay#KmSpeedElevZoneAddress
1HWHaridwar Junction (9)  -06:00-21-521.860294mNRHaridwar, Uttarakhand
2RKRoorkee (3)X  06:45-06:47-2m31-477.126264mNRRoorkee - 247667, Uttarakhand
3TPZTapri Junction (2)  08:02-08:04-2m11-445.069274mNRTapri -Saharanpur, Uttar Pradesh
4DBDDeoband (2)X  08:28-08:30-2m11-417.341258mNRSaharanpur, Uttar Pradesh
5MOZMuzaffarnagar (3)X  09:05-09:07-2m11-393.360247mNRMuzaffarNagar, Uttar Pradesh
6MUTMeerut Cantt. (2)  09:58-10:00-2m11-342.129230mNRMeerut, Uttar Pradesh
7MTCMeerut City Junction (6)  10:09-10:12-3m21-337.764229mNRMeerut, Uttar Pradesh
8GZBGhaziabad Junction (6)XO  10:56-10:58-2m31-290.533217mNRGhaziabad, Uttar Pradesh
9NZMDelhi Hazrat Nizamuddin (7)X11:40-12:05-25m21-267.166209mNRNizamuddin East/Sarai KaleKhan Bus Terminal, Delhi NCT
10FDBFaridabad (4)X  12:24-12:26-2m31-246.357206mNRold Faridabad, Haryana
11KSVKosi Kalan (3)  13:41-13:43-2m21-174.678189mNCRKosi Kalan, Uttar Pradesh
12MTJMathura Junction (10)X  14:15-14:20-5m11-133.151179mNCRMathura, Uttar Pradesh
13RKMRaja Ki Mandi (4)X  15:18-15:20-2m21-83.58170mNCRAgra, Uttar Pradesh
14AGCAgra Cantt. (6)X  15:50-15:58-8m41-79.485174mNCRAgra, Uttar Pradesh
15DHODholpur Junction (3)X  16:35-16:37-2m21-26.870177mNCRDholpur, Rajasthan
16MRA»Morena (3)»X  17:00-17:02-2m--10.075176mNCRMorena, Madhya Pradesh
17GWLGwalior Junction (4)X  17:33-17:38-5m1138.677214mNCRGwalior, Madhya Pradesh
18DBADabra (3)  18:11-18:13-2m3180.970204mNCRDabra(District-Gwalior), Madhya Pradesh
19DAADatia (2)X  18:39-18:41-2m--1111.241264mNCRDatia, Madhya Pradesh
20JHSJhansi Junction (7)X  19:18-19:26-8m31136.361259mNCRJhansi, Uttar Pradesh
21BABBabina (3)X  19:51-19:53-2m11161.886285mNCRBabina, Uttar Pradesh
22LARLalitpur (3)  20:38-20:40-2m11226.642373mNCRLalitpur, Uttar Pradesh
23MAKRMalkheri Junction (2)X  22:10-22:12-2m--1289.737421mWCRGuna, Madhya Pradesh
24KYEKhurai (5)  22:40-22:42-2m11307.055439mWCRKhurai, Madhya Pradesh
25SGOSaugor (2)  23:40-23:45-5m11359.858519mWCRMP 470001Madhya pradesh, Madhya Pradesh
26PHAPathariaX  00:38-00:40-2m12410.736382mWCRState Highway 14, Madhya Pradesh
27DMODamoh (2)X  01:23-01:25-2m--2436.942365mWCRDamoh, Madhya Pradesh
28KMZKatni Murwara  04:00-04:10-10m22546.045385mWCRMP 483504 ?, Madhya Pradesh
29CHDChandia Road (1)  05:03-05:05-2m12585.860406mSECRNational Highway 78, Madhya Pradesh
30UMRUmaria (3)  05:24-05:29-5m--2604.880469mSECRUmaria, Madhya Pradesh
31NRZBNowrozabad  05:46-05:48-2m--2627.454458mSECRNational Highway 78, Madhya Pradesh
32BRSBirsinghpur  05:56-05:58-2m--2634.743461mSECRPali, Madhya Pradesh
33SDLShahdol  06:50-06:55-5m--2672.069466mSECR, Madhya Pradesh
34BUHBurhar  07:12-07:14-2m--2691.558494mSECRBurhar, Madhya Pradesh
35AALAmlai  07:23-07:25-2m--2700.238495mSECRAnuppur, Madhya Pradesh
36APRAnuppur Junction (3)  07:45-07:50-5m--2712.983487mSECRAnuppur, Madhya Pradesh
37PNDPendra Road  08:27-08:32-5m--2764.156620mSECRBilaspur district, Chhattisgarh
38BIGBelgahna  09:30-09:32-2m--2817.879327mSECRBilaspur, Chhattisgarh
39KGBKargi Road  09:44-09:46-2m72833.628327mSECRBilaspur, Chhattisgarh
40BSPBilaspur Junction (8)X  10:55-11:15-20m12865.668271mSECRBilaspur, Chhattisgarh
41AKTAkaltara (4)  11:39-11:41-2m--2892.953284mSECRDist. Janjgir Champa, Chhattisgarh
42NIANaila  11:58-12:00-2m--2907.843273mSECRJanjgir, Chhattisgarh
43CPHChampa Junction (3)  12:15-12:20-5m--2918.672264mSECRNational Highway 200 (07819-245767), Chhattisgarh
44BUABaradwar  12:33-12:35-2m--2934.281256mSECRJanjgir-Champa, Chhattisgarh
45SKTSakti (4)  12:46-12:48-2m--2949.077237mSECRJanjgir-Champa, Chhattisgarh
46KHSKharsiaX  13:00-13:02-2m--2964.473259mSECRNational Highway 200, Chhattisgarh
47RIGRaigarh (3)  13:30-13:35-5m12998.493220mSECRRaigarh, Chhattisgarh
48BPHBelpaharX  14:08-14:10-2m721049.441235mSECRBelpahar, Odisha
49BRJNBrajrajnagar  14:23-14:25-2m--21058.416212mSECRBrajrajnagar, Odisha
50JSGJharsuguda Junction (5)X  15:10-15:20-10m--21070.084236mSERJharsuguda, Odisha
51BMBBamra (3)  15:46-15:48-2m--21106.583259mSERBamra PH : 06642-229268, Odisha
52GPRaj Gangpur (3)  16:13-16:15-2m221141.251237mSERRaj Ganpur, Odisha
53ROURourkela Junction (5)X  16:50-17:05-15m421171.077198mSERRourkela, Odisha
54BZRBisra  17:16-17:16-0m--21185.181224mSERSundargarh, Odisha
55MOUManoharpurX  17:35-17:37-2m--21210.859228mSERManoharpur, Jharkhand
56GOLGoilkera  18:05-18:07-2m--21238.353333mSERGoilkera, Jharkhand
57CKPChakradharpur (3)X  18:45-18:55-10m--21272.080235mSERChakradharpur (West Singhbhum), Jharkhand
58RKSNRajkharsawan JunctionX  19:10-19:12-2m--21292.157189mSERWest Singhbhum district, Jharkhand
59SINISini Junction (3)  19:28-19:30-2m--21307.329182mSERNational Highway 33, Jharkhand
60TATATatanagar Junction (5)  20:25-20:35-10m421334.366164mSER91-657-2423026, Jharkhand
61GTSGhatsila (3)  21:08-21:10-2m--21370.580103mSEREast Singhbhum, Jharkhand
62CKUChakulia (4)X  21:33-21:35-2m--21401.046126mSERChakulia, Jharkhand
63HIJHijli (2)  23:03-23:05-2m--21468.86848mSERdist - paschim medinipur, West Bengal
64JERJaleswar (4)X  00:02-00:04-2m--31533.66513mSERJaleswar, Odisha
65BTSBasta (3)  00:22-00:24-2m--31553.06516mSERBasta, Odisha
66BLSBalasore (4)X  00:50-01:00-10m231581.08719mSERBalasore, Odisha
67SOROSoro  01:23-01:25-2m--31614.54414mSERSoro, Odisha
68BHCBhadrak (4)  02:05-02:07-2m--31643.59723mECoRBhadrak, Odisha
69JJKRJajpur Keonjhar Road (4)X  02:34-02:36-2m--31687.17336mECoRJajpur, Odisha
70CTCCuttack Junction (5)  03:35-03:40-5m--31759.14828mECoRCuttack, Odisha
71BBSBhubaneswar (4)X  04:15-04:20-5m431787.02340mECoRBhubaneshwar, Odisha
72KURKhurda Road Junction (7)  05:10-05:15-5m--31805.95325mECoRKhordha, Odisha
73SILSakhi Gopal (3)X  05:46-05:48-2m--31833.41410mECoRPuri, Odisha
74PURI•Puri (5)•  07:00--131849.8-12mECoRPuri, Odisha
Scroll to Top
Scroll to Bottom